owner,sensor,date,latitude,longitude,vertical_datum,wind_speed,wind_to_direction,wind_speed_of_gust,qcFlag 
TCOON,ioos:station:TCOON:005:1,2010-01-01T00:00:00Z,27.6346,-97.2370,0.0,4.1,57.0,4.8,'11111222,11111222,11111222' 
TCOON,ioos:station:TCOON:005:1,2010-01-01T01:00:00Z,27.6346,-97.2370,0.0,3.4,47.0,3.8,'11111222,11111222,11111222' 
TCOON,ioos:station:TCOON:005:1,2010-01-01T03:00:00Z,27.6346,-97.2370,0.0,4.9,13.0,6.7,'11111222,11111222,11111222' 
TCOON,ioos:station:TCOON:005:1,2010-01-01T04:00:00Z,27.6346,-97.2370,0.0,8.0,1.0,10.3,'11111222,11111222,11111222' 
TCOON,ioos:station:TCOON:005:1,2010-01-01T05:00:00Z,27.6346,-97.2370,0.0,9.6,4.0,11.4,'11111222,11111222,11111222' 
TCOON,ioos:station:TCOON:005:1,2010-01-01T06:00:00Z,27.6346,-97.2370,0.0,10.5,358.0,12.7,'11111222,11111222,11111222' 
TCOON,ioos:station:TCOON:005:1,2010-01-01T07:00:00Z,27.6346,-97.2370,0.0,11.5,360.0,14.0,'11111222,11144222,11111222' 
TCOON,ioos:station:TCOON:005:1,2010-01-01T08:00:00Z,27.6346,-97.2370,0.0,11.9,350.0,14.3,'11111222,11111222,11111222' 
TCOON,ioos:station:TCOON:005:1,2010-01-01T09:00:00Z,27.6346,-97.2370,0.0,12.0,344.0,14.3,'11111222,11111222,11111222' 
TCOON,ioos:station:TCOON:005:1,2010-01-01T10:00:00Z,27.6346,-97.2370,0.0,9.4,355.0,10.9,'11111222,11111222,11111222' 
TCOON,ioos:station:TCOON:005:1,2010-01-01T11:00:00Z,27.6346,-97.2370,0.0,9.0,346.0,10.6,'11111222,11111222,11111222' 
TCOON,ioos:station:TCOON:005:1,2010-01-01T12:00:00Z,27.6346,-97.2370,0.0,11.2,352.0,12.7,'11111222,11111222,11111222' 
TCOON,ioos:station:TCOON:005:1,2010-01-01T13:00:00Z,27.6346,-97.2370,0.0,9.9,355.0,11.6,'11111222,11111222,11111222' 
TCOON,ioos:station:TCOON:005:1,2010-01-01T14:00:00Z,27.6346,-97.2370,0.0,7.9,352.0,9.5,'11111222,11111222,11111222' 
TCOON,ioos:station:TCOON:005:1,2010-01-01T15:00:00Z,27.6346,-97.2370,0.0,8.8,355.0,10.4,'11111222,11111222,11111222' 
TCOON,ioos:station:TCOON:005:1,2010-01-01T16:00:00Z,27.6346,-97.2370,0.0,6.2,342.0,7.0,'11111222,11111222,11111222' 
TCOON,ioos:station:TCOON:005:1,2010-01-01T17:00:00Z,27.6346,-97.2370,0.0,4.7,348.0,5.7,'11111222,11111222,11111222' 
TCOON,ioos:station:TCOON:005:1,2010-01-01T18:00:00Z,27.6346,-97.2370,0.0,4.9,358.0,6.4,'11111222,11111222,11111222' 
TCOON,ioos:station:TCOON:005:1,2010-01-01T19:00:00Z,27.6346,-97.2370,0.0,3.2,352.0,4.3,'11111222,11111222,11111222' 
TCOON,ioos:station:TCOON:005:1,2010-01-01T20:00:00Z,27.6346,-97.2370,0.0,1.4,10.0,2.2,'11111222,11111222,11111222' 
TCOON,ioos:station:TCOON:005:1,2010-01-01T21:00:00Z,27.6346,-97.2370,0.0,1.6,302.0,2.0,'11111222,11111222,11111222' 
TCOON,ioos:station:TCOON:005:1,2010-01-01T22:00:00Z,27.6346,-97.2370,0.0,0.0,111.0,0.1,'11111222,11111222,11111222' 
TCOON,ioos:station:TCOON:005:1,2010-01-01T23:00:00Z,27.6346,-97.2370,0.0,1.8,141.0,2.6,'11111222,11111222,11111222' 
TCOON,ioos:station:TCOON:005:1,2010-01-02T00:00:00Z,27.6346,-97.2370,0.0,2.0,132.0,2.4,'11111222,11111222,11111222' 
TCOON,ioos:station:TCOON:005:1,2010-01-02T01:00:00Z,27.6346,-97.2370,0.0,2.2,114.0,2.7,'11111222,11111222,11111222' 
TCOON,ioos:station:TCOON:005:1,2010-01-02T02:00:00Z,27.6346,-97.2370,0.0,3.5,94.0,4.2,'11111222,11111222,11111222' 
TCOON,ioos:station:TCOON:005:1,2010-01-02T03:00:00Z,27.6346,-97.2370,0.0,4.8,70.0,5.5,'11111222,11111222,11111222' 
TCOON,ioos:station:TCOON:005:1,2010-01-02T04:00:00Z,27.6346,-97.2370,0.0,5.1,65.0,5.8,'11111222,11111222,11111222' 
TCOON,ioos:station:TCOON:005:1,2010-01-02T05:00:00Z,27.6346,-97.2370,0.0,3.4,54.0,4.1,'11111222,11111222,11111222' 
TCOON,ioos:station:TCOON:005:1,2010-01-02T06:00:00Z,27.6346,-97.2370,0.0,2.1,57.0,2.4,'11111222,11111222,11111222' 
TCOON,ioos:station:TCOON:005:1,2010-01-02T07:00:00Z,27.6346,-97.2370,0.0,2.5,9.0,2.6,'11111222,11111222,11111222' 
TCOON,ioos:station:TCOON:005:1,2010-01-02T08:00:00Z,27.6346,-97.2370,0.0,2.3,307.0,2.7,'11111222,11111222,11111222' 
TCOON,ioos:station:TCOON:005:1,2010-01-02T09:00:00Z,27.6346,-97.2370,0.0,2.7,309.0,2.9,'11111222,11111222,11111222' 
TCOON,ioos:station:TCOON:005:1,2010-01-02T10:00:00Z,27.6346,-97.2370,0.0,3.5,352.0,3.9,'11111222,11111222,11111222' 
TCOON,ioos:station:TCOON:005:1,2010-01-02T11:00:00Z,27.6346,-97.2370,0.0,4.8,4.0,5.9,'11111222,11111222,11111222' 
TCOON,ioos:station:TCOON:005:1,2010-01-02T12:00:00Z,27.6346,-97.2370,0.0,4.6,16.0,6.8,'11111222,11111222,11111222' 
TCOON,ioos:station:TCOON:005:1,2010-01-02T13:00:00Z,27.6346,-97.2370,0.0,5.2,14.0,6.3,'11111222,11111222,11111222' 
TCOON,ioos:station:TCOON:005:1,2010-01-02T14:00:00Z,27.6346,-97.2370,0.0,5.7,35.0,7.2,'11111222,11111222,11111222' 
TCOON,ioos:station:TCOON:005:1,2010-01-02T15:00:00Z,27.6346,-97.2370,0.0,5.5,31.0,6.6,'11111222,11111222,11111222' 
TCOON,ioos:station:TCOON:005:1,2010-01-02T16:00:00Z,27.6346,-97.2370,0.0,6.0,25.0,6.9,'11111222,11111222,11111222' 
TCOON,ioos:station:TCOON:005:1,2010-01-02T17:00:00Z,27.6346,-97.2370,0.0,5.1,15.0,6.5,'11111222,11111222,11111222' 
TCOON,ioos:station:TCOON:005:1,2010-01-02T18:00:00Z,27.6346,-97.2370,0.0,6.1,39.0,7.4,'11111222,11111222,11111222' 
TCOON,ioos:station:TCOON:005:1,2010-01-02T19:00:00Z,27.6346,-97.2370,0.0,8.0,44.0,9.2,'11111222,11111222,11111222' 
TCOON,ioos:station:TCOON:005:1,2010-01-02T20:00:00Z,27.6346,-97.2370,0.0,8.7,48.0,9.8,'11111222,11111222,11111222' 
TCOON,ioos:station:TCOON:005:1,2010-01-02T22:00:00Z,27.6346,-97.2370,0.0,8.7,55.0,9.7,'11111222,11111222,11111222' 
TCOON,ioos:station:TCOON:005:1,2010-01-02T23:00:00Z,27.6346,-97.2370,0.0,7.0,62.0,8.2,'11111222,11111222,11111222' 
TCOON,ioos:station:TCOON:005:1,2010-01-03T00:00:00Z,27.6346,-97.2370,0.0,7.5,63.0,8.4,'11111222,11111222,11111222' 
TCOON,ioos:station:TCOON:005:1,2010-01-03T02:00:00Z,27.6346,-97.2370,0.0,6.4,69.0,7.4,'11111222,11111222,11111222' 
TCOON,ioos:station:TCOON:005:1,2010-01-03T03:00:00Z,27.6346,-97.2370,0.0,6.3,71.0,7.4,'11111222,11111222,11111222' 
TCOON,ioos:station:TCOON:005:1,2010-01-03T04:00:00Z,27.6346,-97.2370,0.0,5.4,65.0,6.4,'11111222,11111222,11111222' 
TCOON,ioos:station:TCOON:005:1,2010-01-03T05:00:00Z,27.6346,-97.2370,0.0,5.6,55.0,6.2,'11111222,11111222,11111222' 
TCOON,ioos:station:TCOON:005:1,2010-01-03T06:00:00Z,27.6346,-97.2370,0.0,3.7,63.0,4.3,'11111222,11111222,11111222' 
TCOON,ioos:station:TCOON:005:1,2010-01-03T07:00:00Z,27.6346,-97.2370,0.0,3.1,52.0,3.4,'11111222,11111222,11111222' 
TCOON,ioos:station:TCOON:005:1,2010-01-03T08:00:00Z,27.6346,-97.2370,0.0,5.1,42.0,5.9,'11111222,11111222,11111222' 
TCOON,ioos:station:TCOON:005:1,2010-01-03T09:00:00Z,27.6346,-97.2370,0.0,4.9,30.0,5.9,'11111222,11111222,11111222' 
TCOON,ioos:station:TCOON:005:1,2010-01-03T10:00:00Z,27.6346,-97.2370,0.0,6.5,50.0,7.3,'11111222,11111222,11111222' 
TCOON,ioos:station:TCOON:005:1,2010-01-03T11:00:00Z,27.6346,-97.2370,0.0,6.5,50.0,7.4,'11111222,11111222,11111222' 
TCOON,ioos:station:TCOON:005:1,2010-01-03T12:00:00Z,27.6346,-97.2370,0.0,5.5,36.0,6.5,'11111222,11111222,11111222' 
TCOON,ioos:station:TCOON:005:1,2010-01-03T13:00:00Z,27.6346,-97.2370,0.0,6.0,41.0,7.0,'11111222,11111222,11111222' 
TCOON,ioos:station:TCOON:005:1,2010-01-03T14:00:00Z,27.6346,-97.2370,0.0,5.8,41.0,7.0,'11111222,11111222,11111222' 
TCOON,ioos:station:TCOON:005:1,2010-01-03T15:00:00Z,27.6346,-97.2370,0.0,5.3,51.0,6.0,'11111222,11111222,11111222' 
TCOON,ioos:station:TCOON:005:1,2010-01-03T16:00:00Z,27.6346,-97.2370,0.0,3.8,30.0,4.7,'11111222,11111222,11111222' 
TCOON,ioos:station:TCOON:005:1,2010-01-03T17:00:00Z,27.6346,-97.2370,0.0,5.4,54.0,6.1,'11111222,11111222,11111222' 
TCOON,ioos:station:TCOON:005:1,2010-01-03T18:00:00Z,27.6346,-97.2370,0.0,5.4,39.0,6.5,'11111222,11111222,11111222' 
TCOON,ioos:station:TCOON:005:1,2010-01-03T19:00:00Z,27.6346,-97.2370,0.0,6.8,39.0,8.8,'11111222,11111222,11111222' 
TCOON,ioos:station:TCOON:005:1,2010-01-03T20:00:00Z,27.6346,-97.2370,0.0,7.5,39.0,9.2,'11111222,11111222,11111222' 
TCOON,ioos:station:TCOON:005:1,2010-01-03T21:00:00Z,27.6346,-97.2370,0.0,7.5,44.0,9.1,'11111222,11111222,11111222' 
TCOON,ioos:station:TCOON:005:1,2010-01-03T22:00:00Z,27.6346,-97.2370,0.0,8.3,44.0,9.9,'11111222,11111222,11111222' 
TCOON,ioos:station:TCOON:005:1,2010-01-03T23:00:00Z,27.6346,-97.2370,0.0,9.3,39.0,10.3,'11111222,11111222,11111222' 
TCOON,ioos:station:TCOON:005:1,2010-01-04T02:00:00Z,27.6346,-97.2370,0.0,8.4,29.0,10.1,'11111222,11111222,11111222' 
TCOON,ioos:station:TCOON:005:1,2010-01-04T03:00:00Z,27.6346,-97.2370,0.0,8.8,27.0,10.5,'11111222,11111222,11111222' 
TCOON,ioos:station:TCOON:005:1,2010-01-04T04:00:00Z,27.6346,-97.2370,0.0,7.7,31.0,9.0,'11111222,11111222,11111222' 
TCOON,ioos:station:TCOON:005:1,2010-01-04T05:00:00Z,27.6346,-97.2370,0.0,7.2,15.0,9.1,'11111222,11111222,11111222' 
TCOON,ioos:station:TCOON:005:1,2010-01-04T06:00:00Z,27.6346,-97.2370,0.0,7.5,19.0,9.4,'11111222,11111222,11111222' 
TCOON,ioos:station:TCOON:005:1,2010-01-04T07:00:00Z,27.6346,-97.2370,0.0,7.6,19.0,9.9,'11111222,11111222,11111222' 
TCOON,ioos:station:TCOON:005:1,2010-01-04T09:00:00Z,27.6346,-97.2370,0.0,6.2,13.0,8.1,'11111222,11111222,11111222' 
TCOON,ioos:station:TCOON:005:1,2010-01-04T10:00:00Z,27.6346,-97.2370,0.0,6.0,13.0,8.3,'11111222,11111222,11111222' 
TCOON,ioos:station:TCOON:005:1,2010-01-04T11:00:00Z,27.6346,-97.2370,0.0,8.9,20.0,11.4,'11111222,11111222,11111222' 
TCOON,ioos:station:TCOON:005:1,2010-01-04T12:00:00Z,27.6346,-97.2370,0.0,8.6,16.0,10.4,'11111222,11111222,11111222' 
TCOON,ioos:station:TCOON:005:1,2010-01-04T13:00:00Z,27.6346,-97.2370,0.0,7.5,360.0,9.1,'11111222,11144222,11111222' 
TCOON,ioos:station:TCOON:005:1,2010-01-04T14:00:00Z,27.6346,-97.2370,0.0,8.3,1.0,10.8,'11111222,11111222,11111222' 
TCOON,ioos:station:TCOON:005:1,2010-01-04T15:00:00Z,27.6346,-97.2370,0.0,7.6,2.0,9.2,'11111222,11111222,11111222' 
TCOON,ioos:station:TCOON:005:1,2010-01-04T16:00:00Z,27.6346,-97.2370,0.0,8.2,357.0,10.4,'11111222,11111222,11111222' 
TCOON,ioos:station:TCOON:005:1,2010-01-04T17:00:00Z,27.6346,-97.2370,0.0,8.0,3.0,9.9,'11111222,11111222,11111222' 
TCOON,ioos:station:TCOON:005:1,2010-01-04T18:00:00Z,27.6346,-97.2370,0.0,8.8,360.0,10.5,'11111222,11144222,11111222' 
TCOON,ioos:station:TCOON:005:1,2010-01-04T19:00:00Z,27.6346,-97.2370,0.0,7.1,356.0,9.2,'11111222,11111222,11111222' 
TCOON,ioos:station:TCOON:005:1,2010-01-05T00:00:00Z,27.6346,-97.2370,0.0,5.6,10.0,7.0,'11111222,11111222,11111222' 
TCOON,ioos:station:TCOON:005:1,2010-01-05T01:00:00Z,27.6346,-97.2370,0.0,6.2,11.0,7.6,'11111222,11111222,11111222' 
TCOON,ioos:station:TCOON:005:1,2010-01-05T02:00:00Z,27.6346,-97.2370,0.0,6.2,11.0,8.1,'11111222,11111222,11111222' 
TCOON,ioos:station:TCOON:005:1,2010-01-05T03:00:00Z,27.6346,-97.2370,0.0,6.4,13.0,8.0,'11111222,11111222,11111222' 
TCOON,ioos:station:TCOON:005:1,2010-01-05T04:00:00Z,27.6346,-97.2370,0.0,7.8,27.0,9.8,'11111222,11111222,11111222' 
TCOON,ioos:station:TCOON:005:1,2010-01-05T05:00:00Z,27.6346,-97.2370,0.0,5.2,37.0,6.4,'11111222,11111222,11111222' 
TCOON,ioos:station:TCOON:005:1,2010-01-05T06:00:00Z,27.6346,-97.2370,0.0,5.9,30.0,6.8,'11111222,11111222,11111222' 
TCOON,ioos:station:TCOON:005:1,2010-01-05T07:00:00Z,27.6346,-97.2370,0.0,6.4,45.0,7.8,'11111222,11111222,11111222' 
TCOON,ioos:station:TCOON:005:1,2010-01-05T08:00:00Z,27.6346,-97.2370,0.0,6.9,41.0,8.2,'11111222,11111222,11111222' 
TCOON,ioos:station:TCOON:005:1,2010-01-05T09:00:00Z,27.6346,-97.2370,0.0,7.6,25.0,9.0,'11111222,11111222,11111222' 
TCOON,ioos:station:TCOON:005:1,2010-01-05T10:00:00Z,27.6346,-97.2370,0.0,7.3,29.0,8.8,'11111222,11111222,11111222' 
TCOON,ioos:station:TCOON:005:1,2010-01-05T11:00:00Z,27.6346,-97.2370,0.0,7.6,22.0,8.6,'11111222,11111222,11111222' 
TCOON,ioos:station:TCOON:005:1,2010-01-05T12:00:00Z,27.6346,-97.2370,0.0,7.9,25.0,9.0,'11111222,11111222,11111222' 
TCOON,ioos:station:TCOON:005:1,2010-01-05T13:00:00Z,27.6346,-97.2370,0.0,7.6,28.0,9.2,'11111222,11111222,11111222' 
TCOON,ioos:station:TCOON:005:1,2010-01-05T14:00:00Z,27.6346,-97.2370,0.0,7.1,21.0,8.3,'11111222,11111222,11111222' 
TCOON,ioos:station:TCOON:005:1,2010-01-05T15:00:00Z,27.6346,-97.2370,0.0,7.3,23.0,8.5,'11111222,11111222,11111222' 
TCOON,ioos:station:TCOON:005:1,2010-01-05T16:00:00Z,27.6346,-97.2370,0.0,5.6,21.0,6.7,'11111222,11111222,11111222' 
TCOON,ioos:station:TCOON:005:1,2010-01-05T17:00:00Z,27.6346,-97.2370,0.0,4.8,13.0,5.9,'11111222,11111222,11111222' 
TCOON,ioos:station:TCOON:005:1,2010-01-05T18:00:00Z,27.6346,-97.2370,0.0,4.1,16.0,5.4,'11111222,11111222,11111222' 
TCOON,ioos:station:TCOON:005:1,2010-01-05T19:00:00Z,27.6346,-97.2370,0.0,5.4,26.0,6.4,'11111222,11111222,11111222' 
TCOON,ioos:station:TCOON:005:1,2010-01-05T20:00:00Z,27.6346,-97.2370,0.0,4.9,51.0,6.1,'11111222,11111222,11111222' 
TCOON,ioos:station:TCOON:005:1,2010-01-05T21:00:00Z,27.6346,-97.2370,0.0,4.9,53.0,5.8,'11111222,11111222,11111222' 
TCOON,ioos:station:TCOON:005:1,2010-01-05T22:00:00Z,27.6346,-97.2370,0.0,4.5,60.0,5.5,'11111222,11111222,11111222' 
TCOON,ioos:station:TCOON:005:1,2010-01-05T23:00:00Z,27.6346,-97.2370,0.0,4.9,52.0,5.9,'11111222,11111222,11111222' 
TCOON,ioos:station:TCOON:005:1,2010-01-06T00:00:00Z,27.6346,-97.2370,0.0,4.6,59.0,5.2,'11111222,11111222,11111222' 
TCOON,ioos:station:TCOON:005:1,2010-01-06T01:00:00Z,27.6346,-97.2370,0.0,4.3,81.0,5.1,'11111222,11111222,11111222' 
TCOON,ioos:station:TCOON:005:1,2010-01-06T02:00:00Z,27.6346,-97.2370,0.0,5.5,82.0,6.1,'11111222,11111222,11111222' 
TCOON,ioos:station:TCOON:005:1,2010-01-06T03:00:00Z,27.6346,-97.2370,0.0,6.8,85.0,7.7,'11111222,11111222,11111222' 
TCOON,ioos:station:TCOON:005:1,2010-01-06T04:00:00Z,27.6346,-97.2370,0.0,4.9,91.0,5.8,'11111222,11111222,11111222' 
TCOON,ioos:station:TCOON:005:1,2010-01-06T05:00:00Z,27.6346,-97.2370,0.0,5.2,88.0,5.8,'11111222,11111222,11111222' 
TCOON,ioos:station:TCOON:005:1,2010-01-06T07:00:00Z,27.6346,-97.2370,0.0,3.5,107.0,3.8,'11111222,11111222,11111222' 
TCOON,ioos:station:TCOON:005:1,2010-01-06T08:00:00Z,27.6346,-97.2370,0.0,4.3,109.0,5.1,'11111222,11111222,11111222' 
TCOON,ioos:station:TCOON:005:1,2010-01-06T09:00:00Z,27.6346,-97.2370,0.0,4.5,113.0,5.1,'11111222,11111222,11111222' 
TCOON,ioos:station:TCOON:005:1,2010-01-06T10:00:00Z,27.6346,-97.2370,0.0,3.9,107.0,5.0,'11111222,11111222,11111222' 
TCOON,ioos:station:TCOON:005:1,2010-01-06T11:00:00Z,27.6346,-97.2370,0.0,3.9,113.0,4.9,'11111222,11111222,11111222' 
TCOON,ioos:station:TCOON:005:1,2010-01-06T12:00:00Z,27.6346,-97.2370,0.0,3.1,122.0,3.8,'11111222,11111222,11111222' 
TCOON,ioos:station:TCOON:005:1,2010-01-06T13:00:00Z,27.6346,-97.2370,0.0,3.8,127.0,4.7,'11111222,11111222,11111222' 
TCOON,ioos:station:TCOON:005:1,2010-01-06T14:00:00Z,27.6346,-97.2370,0.0,3.9,133.0,4.8,'11111222,11111222,11111222' 
TCOON,ioos:station:TCOON:005:1,2010-01-06T15:00:00Z,27.6346,-97.2370,0.0,2.5,130.0,3.2,'11111222,11111222,11111222' 
TCOON,ioos:station:TCOON:005:1,2010-01-06T16:00:00Z,27.6346,-97.2370,0.0,2.9,149.0,3.9,'11111222,11111222,11111222' 
TCOON,ioos:station:TCOON:005:1,2010-01-06T17:00:00Z,27.6346,-97.2370,0.0,3.8,133.0,4.9,'11111222,11111222,11111222' 
TCOON,ioos:station:TCOON:005:1,2010-01-06T18:00:00Z,27.6346,-97.2370,0.0,3.5,144.0,4.7,'11111222,11111222,11111222' 
TCOON,ioos:station:TCOON:005:1,2010-01-06T19:00:00Z,27.6346,-97.2370,0.0,5.2,144.0,7.4,'11111222,11111222,11111222' 
TCOON,ioos:station:TCOON:005:1,2010-01-06T20:00:00Z,27.6346,-97.2370,0.0,4.9,147.0,6.6,'11111222,11111222,11111222' 
TCOON,ioos:station:TCOON:005:1,2010-01-06T21:00:00Z,27.6346,-97.2370,0.0,5.6,148.0,8.2,'11111222,11111222,11111222' 
TCOON,ioos:station:TCOON:005:1,2010-01-06T22:00:00Z,27.6346,-97.2370,0.0,4.8,147.0,6.3,'11111222,11111222,11111222' 
TCOON,ioos:station:TCOON:005:1,2010-01-06T23:00:00Z,27.6346,-97.2370,0.0,5.3,157.0,7.3,'11111222,11111222,11111222' 
TCOON,ioos:station:TCOON:005:1,2010-01-07T00:00:00Z,27.6346,-97.2370,0.0,5.2,160.0,28.6,'11111222,11111222,11111222' 
TCOON,ioos:station:TCOON:005:1,2010-01-07T01:00:00Z,27.6346,-97.2370,0.0,5.3,165.0,7.2,'11111222,11111222,11111222' 
TCOON,ioos:station:TCOON:005:1,2010-01-07T02:00:00Z,27.6346,-97.2370,0.0,4.0,169.0,5.5,'11111222,11111222,11111222' 
TCOON,ioos:station:TCOON:005:1,2010-01-07T04:00:00Z,27.6346,-97.2370,0.0,3.8,165.0,5.0,'11111222,11111222,11111222' 
TCOON,ioos:station:TCOON:005:1,2010-01-07T05:00:00Z,27.6346,-97.2370,0.0,3.8,153.0,5.4,'11111222,11111222,11111222' 
TCOON,ioos:station:TCOON:005:1,2010-01-07T07:00:00Z,27.6346,-97.2370,0.0,2.8,165.0,3.6,'11111222,11111222,11111222' 
TCOON,ioos:station:TCOON:005:1,2010-01-07T10:00:00Z,27.6346,-97.2370,0.0,0.8,217.0,1.0,'11111222,11111222,11111222' 
TCOON,ioos:station:TCOON:005:1,2010-01-07T11:00:00Z,27.6346,-97.2370,0.0,0.7,213.0,0.9,'11111222,11111222,11111222' 
TCOON,ioos:station:TCOON:005:1,2010-01-07T12:00:00Z,27.6346,-97.2370,0.0,2.3,354.0,2.5,'11111222,11111222,11111222' 
TCOON,ioos:station:TCOON:005:1,2010-01-07T13:00:00Z,27.6346,-97.2370,0.0,3.2,357.0,4.4,'11111222,11111222,11111222' 
TCOON,ioos:station:TCOON:005:1,2010-01-07T14:00:00Z,27.6346,-97.2370,0.0,6.4,344.0,7.3,'11111222,11111222,11111222' 
TCOON,ioos:station:TCOON:005:1,2010-01-07T15:00:00Z,27.6346,-97.2370,0.0,10.7,356.0,13.4,'11111222,11111222,11111222' 
TCOON,ioos:station:TCOON:005:1,2010-01-07T16:00:00Z,27.6346,-97.2370,0.0,14.1,358.0,17.0,'11111222,11111222,11111222' 
TCOON,ioos:station:TCOON:005:1,2010-01-07T17:00:00Z,27.6346,-97.2370,0.0,16.5,359.0,19.6,'11111222,11111222,11111222' 
TCOON,ioos:station:TCOON:005:1,2010-01-07T18:00:00Z,27.6346,-97.2370,0.0,14.8,353.0,17.1,'11111222,11111222,11111222' 
TCOON,ioos:station:TCOON:005:1,2010-01-07T19:00:00Z,27.6346,-97.2370,0.0,13.2,351.0,15.6,'11111222,11111222,11111222' 
TCOON,ioos:station:TCOON:005:1,2010-01-07T20:00:00Z,27.6346,-97.2370,0.0,10.9,347.0,13.2,'11111222,11111222,11111222' 
TCOON,ioos:station:TCOON:005:1,2010-01-07T21:00:00Z,27.6346,-97.2370,0.0,10.9,358.0,14.0,'11111222,11111222,11111222' 
TCOON,ioos:station:TCOON:005:1,2010-01-07T22:00:00Z,27.6346,-97.2370,0.0,11.2,357.0,14.1,'11111222,11111222,11111222' 
TCOON,ioos:station:TCOON:005:1,2010-01-07T23:00:00Z,27.6346,-97.2370,0.0,9.3,357.0,11.8,'11111222,11111222,11111222' 
TCOON,ioos:station:TCOON:005:1,2010-01-08T00:00:00Z,27.6346,-97.2370,0.0,10.2,354.0,20.0,'11111222,11111222,11111222' 
TCOON,ioos:station:TCOON:005:1,2010-01-08T01:00:00Z,27.6346,-97.2370,0.0,11.3,353.0,14.6,'11111222,11111222,11111222' 
TCOON,ioos:station:TCOON:005:1,2010-01-08T02:00:00Z,27.6346,-97.2370,0.0,10.8,360.0,13.5,'11111222,11144222,11111222' 
TCOON,ioos:station:TCOON:005:1,2010-01-08T03:00:00Z,27.6346,-97.2370,0.0,13.0,357.0,15.6,'11111222,11111222,11111222' 
TCOON,ioos:station:TCOON:005:1,2010-01-08T04:00:00Z,27.6346,-97.2370,0.0,12.4,1.0,15.4,'11111222,11111222,11111222' 
TCOON,ioos:station:TCOON:005:1,2010-01-08T06:00:00Z,27.6346,-97.2370,0.0,11.0,355.0,13.5,'11111222,11111222,11111222' 
TCOON,ioos:station:TCOON:005:1,2010-01-08T07:00:00Z,27.6346,-97.2370,0.0,13.9,351.0,16.7,'11111222,11111222,11111222' 
TCOON,ioos:station:TCOON:005:1,2010-01-08T08:00:00Z,27.6346,-97.2370,0.0,11.5,6.0,16.3,'11111222,11111222,11111222' 
TCOON,ioos:station:TCOON:005:1,2010-01-08T09:00:00Z,27.6346,-97.2370,0.0,11.1,356.0,13.9,'11111222,11111222,11111222' 
TCOON,ioos:station:TCOON:005:1,2010-01-08T10:00:00Z,27.6346,-97.2370,0.0,12.4,351.0,14.8,'11111222,11111222,11111222' 
TCOON,ioos:station:TCOON:005:1,2010-01-08T11:00:00Z,27.6346,-97.2370,0.0,11.8,356.0,15.5,'11111222,11111222,11111222' 
TCOON,ioos:station:TCOON:005:1,2010-01-08T12:00:00Z,27.6346,-97.2370,0.0,10.6,4.0,12.6,'11111222,11111222,11111222' 
TCOON,ioos:station:TCOON:005:1,2010-01-08T13:00:00Z,27.6346,-97.2370,0.0,11.8,355.0,17.4,'11111222,11111222,11111222' 
TCOON,ioos:station:TCOON:005:1,2010-01-08T14:00:00Z,27.6346,-97.2370,0.0,11.2,355.0,13.8,'11111222,11111222,11111222' 
TCOON,ioos:station:TCOON:005:1,2010-01-08T15:00:00Z,27.6346,-97.2370,0.0,10.7,3.0,14.1,'11111222,11111222,11111222' 
TCOON,ioos:station:TCOON:005:1,2010-01-08T16:00:00Z,27.6346,-97.2370,0.0,9.2,354.0,11.6,'11111222,11111222,11111222' 
TCOON,ioos:station:TCOON:005:1,2010-01-08T17:00:00Z,27.6346,-97.2370,0.0,8.2,355.0,10.3,'11111222,11111222,11111222' 
TCOON,ioos:station:TCOON:005:1,2010-01-08T20:00:00Z,27.6346,-97.2370,0.0,9.5,335.0,12.1,'11111222,11111222,11111222' 
TCOON,ioos:station:TCOON:005:1,2010-01-08T21:00:00Z,27.6346,-97.2370,0.0,9.5,344.0,10.4,'11111222,11111222,11111222' 
TCOON,ioos:station:TCOON:005:1,2010-01-08T22:00:00Z,27.6346,-97.2370,0.0,6.9,341.0,9.6,'11111222,11111222,11111222' 
TCOON,ioos:station:TCOON:005:1,2010-01-09T00:00:00Z,27.6346,-97.2370,0.0,7.7,348.0,9.0,'11111222,11111222,11111222' 
TCOON,ioos:station:TCOON:005:1,2010-01-09T01:00:00Z,27.6346,-97.2370,0.0,7.8,349.0,8.8,'11111222,11111222,11111222' 
TCOON,ioos:station:TCOON:005:1,2010-01-09T02:00:00Z,27.6346,-97.2370,0.0,9.1,352.0,10.3,'11111222,11111222,11111222' 
TCOON,ioos:station:TCOON:005:1,2010-01-09T03:00:00Z,27.6346,-97.2370,0.0,9.2,346.0,11.5,'11111222,11111222,11111222' 
TCOON,ioos:station:TCOON:005:1,2010-01-09T04:00:00Z,27.6346,-97.2370,0.0,8.5,355.0,9.4,'11111222,11111222,11111222' 
TCOON,ioos:station:TCOON:005:1,2010-01-09T05:00:00Z,27.6346,-97.2370,0.0,9.9,349.0,11.6,'11111222,11111222,11111222' 
TCOON,ioos:station:TCOON:005:1,2010-01-09T06:00:00Z,27.6346,-97.2370,0.0,7.9,358.0,9.2,'11111222,11111222,11111222' 
TCOON,ioos:station:TCOON:005:1,2010-01-09T07:00:00Z,27.6346,-97.2370,0.0,9.1,358.0,11.0,'11111222,11111222,11111222' 
TCOON,ioos:station:TCOON:005:1,2010-01-09T08:00:00Z,27.6346,-97.2370,0.0,7.2,4.0,8.6,'11111222,11111222,11111222' 
TCOON,ioos:station:TCOON:005:1,2010-01-09T10:00:00Z,27.6346,-97.2370,0.0,6.4,6.0,8.9,'11111222,11111222,11111222' 
TCOON,ioos:station:TCOON:005:1,2010-01-09T11:00:00Z,27.6346,-97.2370,0.0,6.6,9.0,8.3,'11111222,11111222,11111222' 
TCOON,ioos:station:TCOON:005:1,2010-01-09T12:00:00Z,27.6346,-97.2370,0.0,5.8,8.0,7.4,'11111222,11111222,11111222' 
TCOON,ioos:station:TCOON:005:1,2010-01-09T13:00:00Z,27.6346,-97.2370,0.0,5.6,9.0,6.8,'11111222,11111222,11111222' 
TCOON,ioos:station:TCOON:005:1,2010-01-09T14:00:00Z,27.6346,-97.2370,0.0,5.1,41.0,6.5,'11111222,11111222,11111222' 
TCOON,ioos:station:TCOON:005:1,2010-01-09T15:00:00Z,27.6346,-97.2370,0.0,5.5,14.0,7.3,'11111222,11111222,11111222' 
TCOON,ioos:station:TCOON:005:1,2010-01-09T16:00:00Z,27.6346,-97.2370,0.0,4.3,25.0,6.1,'11111222,11111222,11111222' 
TCOON,ioos:station:TCOON:005:1,2010-01-09T17:00:00Z,27.6346,-97.2370,0.0,4.6,20.0,6.2,'11111222,11111222,11111222' 
TCOON,ioos:station:TCOON:005:1,2010-01-09T18:00:00Z,27.6346,-97.2370,0.0,4.1,22.0,5.7,'11111222,11111222,11111222' 
TCOON,ioos:station:TCOON:005:1,2010-01-09T19:00:00Z,27.6346,-97.2370,0.0,4.7,344.0,5.5,'11111222,11111222,11111222' 
TCOON,ioos:station:TCOON:005:1,2010-01-09T20:00:00Z,27.6346,-97.2370,0.0,3.3,342.0,4.1,'11111222,11111222,11111222' 
TCOON,ioos:station:TCOON:005:1,2010-01-09T21:00:00Z,27.6346,-97.2370,0.0,3.0,334.0,3.9,'11111222,11111222,11111222' 
TCOON,ioos:station:TCOON:005:1,2010-01-09T22:00:00Z,27.6346,-97.2370,0.0,2.0,345.0,2.7,'11111222,11111222,11111222' 
TCOON,ioos:station:TCOON:005:1,2010-01-09T23:00:00Z,27.6346,-97.2370,0.0,1.5,360.0,,'1111122,1111122,1111122' 
TCOON,ioos:station:TCOON:005:1,2010-01-10T00:00:00Z,27.6346,-97.2370,0.0,4.1,50.0,,'1111122,1111122,1111122' 
TCOON,ioos:station:TCOON:005:1,2010-01-10T01:00:00Z,27.6346,-97.2370,0.0,2.6,50.0,,'1111122,1111122,1111122' 
TCOON,ioos:station:TCOON:005:1,2010-01-10T02:00:00Z,27.6346,-97.2370,0.0,3.6,40.0,,'1111122,1111122,1111122' 
TCOON,ioos:station:TCOON:005:1,2010-01-10T03:00:00Z,27.6346,-97.2370,0.0,4.6,20.0,,'1111122,1111122,1111122' 
TCOON,ioos:station:TCOON:005:1,2010-01-10T04:00:00Z,27.6346,-97.2370,0.0,4.6,20.0,,'1111122,1111122,1111122' 
TCOON,ioos:station:TCOON:005:1,2010-01-10T05:00:00Z,27.6346,-97.2370,0.0,4.6,20.0,,'1111122,1111122,1111122' 
TCOON,ioos:station:TCOON:005:1,2010-01-10T07:00:00Z,27.6346,-97.2370,0.0,5.7,20.0,,'1111122,1111122,1111122' 
TCOON,ioos:station:TCOON:005:1,2010-01-10T08:00:00Z,27.6346,-97.2370,0.0,4.6,10.0,,'1111122,1111122,1111122' 
TCOON,ioos:station:TCOON:005:1,2010-01-10T09:00:00Z,27.6346,-97.2370,0.0,4.6,20.0,,'1111122,1111122,1111122' 